Ely, NV

1:55 AM PDT on September 24, 2017 (GMT -0700)
Ely

Weather History for KELY - February, 2014

Change the Weather History Date:

Monday, February 17, 2014

  Actual Average Record
Temperature  
Mean Temperature 39 °F 29 °F  
Max Temperature 54 °F 43 °F 66 °F (1996)
Min Temperature 23 °F 16 °F -14 °F (1911)
Degree Days  
Heating Degree Days 26 36  
Month to date heating degree days 585 635  
Since 1 July heating degree days 4706 4964  
Cooling Degree Days 0 0  
Month to date cooling degree days 0 0  
Year to date cooling degree days 0 0  
Moisture  
Dew Point 17 °F    
Average Humidity 48    
Maximum Humidity 74    
Minimum Humidity 22    
Precipitation  
Precipitation 0.00 in 0.03 in 0.59 in (1990)
Month to date precipitation 0.34 0.43  
Year to date precipitation 1.13 1.13  
Snow  
Snow 0.00 in 0.20 in 6.70 in (1990)
Month to date snowfall 0.8 4.8  
Since 1 July snowfall 36.5 31.8  
Snow Depth 0.00 in    
Sea Level Pressure  
Sea Level Pressure 30.06 in    
Wind  
Wind Speed 11 mph (South)    
Max Wind Speed 26 mph    
Max Gust Speed 35 mph    
Visibility 10 miles    
Events      
T = Trace of Precipitation, MM = Missing Value Source: NWS Daily Summary

Daily Weather History Graph

Daily Weather History Graph

Search for Another Location

Airport or City:

Trip Planner

Search our weather history database for the weather conditions in past years. The results will help you decide how hot, cold, wet, or windy it might be!

Date:

Astronomy

Feb. 17, 2014 Rise Set
Actual Time 6:28 AM PST 5:18 PM PST
Civil Twilight 6:01 AM PST 5:46 PM PST
Nautical Twilight 5:29 AM PST 6:17 PM PST
Astronomical Twilight 4:58 AM PST 6:48 PM PST
Moon 8:15 PM PST (2/17) 7:32 AM PST (2/17)
Length of Visible Light 11h 44m
Length of Day
10h 50m
Waning Gibbous, 93% of the Moon is Illuminated
Feb 17
Waning Gibbous
Feb 22
Last Quarter
Mar 1
New
Mar 8
First Quarter
Mar 16
Full

Hourly Weather History & Observations

Time (PST) Temp. Windchill Dew Point Humidity Pressure Visibility Wind Dir Wind Speed Gust Speed Precip Events Conditions
12:53 AM 27.0 °F 16.7 °F 17.1 °F 66% 30.19 in 10.0 mi South 11.5 mph - N/A   Clear
1:53 AM 25.0 °F - 18.0 °F 75% 30.18 in 10.0 mi North - - N/A   Clear
2:53 AM 24.1 °F 11.0 °F 17.1 °F 75% 30.16 in 10.0 mi South 16.1 mph - N/A   Clear
3:53 AM 24.1 °F 13.1 °F 16.0 °F 71% 30.13 in 10.0 mi South 11.5 mph - N/A   Clear
4:53 AM 25.0 °F 20.7 °F 14.0 °F 63% 30.13 in 10.0 mi Variable 3.5 mph - N/A   Clear
5:53 AM 24.1 °F 18.2 °F 14.0 °F 65% 30.19 in 10.0 mi SE 4.6 mph - N/A   Clear
6:53 AM 25.0 °F 18.1 °F 14.0 °F 63% 30.18 in 10.0 mi East 5.8 mph - N/A   Clear
7:53 AM 35.1 °F 32.2 °F 15.1 °F 44% 30.16 in 10.0 mi ESE 3.5 mph - N/A   Clear
8:53 AM 41.0 °F 34.3 °F 12.0 °F 31% 30.13 in 10.0 mi SSW 11.5 mph - N/A   Clear
9:53 AM 45.0 °F 38.5 °F 15.1 °F 30% 30.08 in 10.0 mi SSW 13.8 mph - N/A   Clear
10:53 AM 53.1 °F - 15.1 °F 22% 30.03 in 10.0 mi SSW 15.0 mph - N/A   Clear
11:53 AM 54.0 °F - 17.1 °F 23% 29.99 in 10.0 mi South 24.2 mph 35.7 mph N/A   Clear
12:53 PM 53.1 °F - 17.1 °F 24% 29.99 in 10.0 mi SSW 21.9 mph 27.6 mph N/A   Clear
1:53 PM 53.1 °F - 17.1 °F 24% 29.97 in 10.0 mi South 18.4 mph - N/A   Clear
2:53 PM 54.0 °F - 15.1 °F 22% 29.96 in 10.0 mi SSW 17.3 mph 23.0 mph N/A   Clear
3:53 PM 52.0 °F - 17.1 °F 25% 29.96 in 10.0 mi SSW 10.4 mph 20.7 mph N/A   Clear
4:53 PM 48.0 °F - 19.0 °F 32% 29.97 in 10.0 mi South 9.2 mph - N/A   Clear
5:53 PM 41.0 °F 34.7 °F 19.0 °F 41% 30.01 in 10.0 mi SSE 10.4 mph - N/A   Clear
6:53 PM 39.9 °F 35.8 °F 19.0 °F 43% 30.03 in 10.0 mi West 5.8 mph - N/A   Clear
7:53 PM 30.9 °F 25.2 °F 21.0 °F 67% 30.04 in 10.0 mi South 5.8 mph - N/A   Clear
8:53 PM 30.9 °F 24.3 °F 21.0 °F 67% 30.02 in 10.0 mi Variable 6.9 mph - N/A   Clear
9:53 PM 33.1 °F 26.9 °F 19.9 °F 59% 30.00 in 10.0 mi South 6.9 mph - N/A   Clear
10:53 PM 30.0 °F 26.5 °F 21.0 °F 69% 29.97 in 10.0 mi SW 3.5 mph - N/A   Clear
11:53 PM 30.0 °F 26.5 °F 19.9 °F 66% 29.99 in 10.0 mi ENE 3.5 mph - N/A   Clear